Time,TemperatureF,DewpointF,PressureIn,WindDirection,WindDirectionDegrees,WindSpeedMPH,WindSpeedGustMPH,Humidity,HourlyPrecipIn,Conditions,Clouds,dailyrainin,SoftwareType,DateUTC
2013-07-13 00:01:00,64.0,-99.9,30.07,NNE,23,0.0,0.0,-999,0.00,,,0.00,,2013-07-13 05:01:00,
2013-07-13 00:11:00,64.0,-99.9,30.07,NNE,23,0.0,0.0,-999,0.00,,,0.00,,2013-07-13 05:11:00,
2013-07-13 00:33:00,65.0,-99.9,30.07,NNE,23,0.0,0.0,-999,0.00,,,0.00,,2013-07-13 05:33:00,
2013-07-13 00:42:00,64.0,-99.9,30.07,NNE,23,0.0,0.0,-999,0.00,,,0.00,,2013-07-13 05:42:00,
2013-07-13 01:02:00,63.0,-99.9,30.07,NNE,23,0.0,0.0,-999,0.00,,,0.00,,2013-07-13 06:02:00,
2013-07-13 01:11:00,63.0,-99.9,30.07,NNE,23,0.0,0.0,-999,0.00,,,0.00,,2013-07-13 06:11:00,
2013-07-13 01:32:00,63.0,-99.9,30.06,NNE,23,0.0,0.0,-999,0.00,,,0.00,,2013-07-13 06:32:00,
2013-07-13 01:43:00,62.0,-99.9,30.06,NNE,23,0.0,0.0,-999,0.00,,,0.00,,2013-07-13 06:43:00,
2013-07-13 02:02:00,62.0,-99.9,30.07,NNE,23,0.0,0.0,-999,0.00,,,0.00,,2013-07-13 07:02:00,
2013-07-13 02:11:00,62.0,-99.9,30.07,NNE,23,0.0,0.0,-999,0.00,,,0.00,,2013-07-13 07:11:00,
2013-07-13 02:22:00,62.0,-99.9,30.07,NNE,23,0.0,0.0,-999,0.00,,,0.00,,2013-07-13 07:22:00,
2013-07-13 02:33:00,63.0,-99.9,30.08,NNE,23,0.0,0.0,-999,0.00,,,0.00,,2013-07-13 07:33:00,
2013-07-13 02:44:00,63.0,-99.9,30.08,NNE,23,0.0,0.0,-999,0.00,,,0.00,,2013-07-13 07:44:00,
2013-07-13 03:02:00,61.0,-99.9,30.09,NNE,23,0.0,0.0,-999,0.00,,,0.00,,2013-07-13 08:02:00,
2013-07-13 03:12:00,61.0,-99.9,30.09,NNE,23,0.0,0.0,-999,0.00,,,0.00,,2013-07-13 08:12:00,
2013-07-13 03:22:00,60.0,-99.9,30.09,NNE,23,0.0,0.0,-999,0.00,,,0.00,,2013-07-13 08:22:00,
2013-07-13 03:33:00,61.0,-99.9,30.09,NNE,23,0.0,0.0,-999,0.00,,,0.00,,2013-07-13 08:33:00,
2013-07-13 03:43:00,61.0,-99.9,30.09,NNE,23,0.0,0.0,-999,0.00,,,0.00,,2013-07-13 08:43:00,
2013-07-13 04:02:00,61.0,-99.9,30.09,NNE,23,0.0,0.0,-999,0.00,,,0.00,,2013-07-13 09:02:00,
2013-07-13 04:11:00,61.0,-99.9,30.09,NNE,23,0.0,0.0,-999,0.00,,,0.00,,2013-07-13 09:11:00,
2013-07-13 04:33:00,62.0,-99.9,30.09,NNE,23,0.0,0.0,-999,0.00,,,0.00,,2013-07-13 09:33:00,
2013-07-13 04:43:00,61.0,-99.9,30.09,NNE,23,0.0,0.0,-999,0.00,,,0.00,,2013-07-13 09:43:00,
2013-07-13 04:53:00,61.0,-99.9,30.09,NNE,23,0.0,0.0,-999,0.00,,,0.00,,2013-07-13 09:53:00,
2013-07-13 05:01:00,61.0,-99.9,30.08,NNE,23,0.0,0.0,-999,0.00,,,0.00,,2013-07-13 10:01:00,
2013-07-13 05:11:00,61.0,-99.9,30.08,NNE,23,0.0,0.0,-999,0.00,,,0.00,,2013-07-13 10:11:00,
2013-07-13 05:32:00,61.0,-99.9,30.09,NNE,23,0.0,0.0,-999,0.00,,,0.00,,2013-07-13 10:32:00,
2013-07-13 05:43:00,60.0,-99.9,30.09,NNE,23,0.0,0.0,-999,0.00,,,0.00,,2013-07-13 10:43:00,
2013-07-13 05:52:00,60.0,-99.9,30.09,NNE,23,0.0,0.0,-999,0.00,,,0.00,,2013-07-13 10:52:00,
2013-07-13 06:02:00,60.0,-99.9,30.10,NNE,23,3.0,5.0,-999,0.00,,,0.00,,2013-07-13 11:02:00,
2013-07-13 06:11:00,61.0,-99.9,30.10,NE,45,0.0,5.0,-999,0.00,,,0.00,,2013-07-13 11:11:00,
2013-07-13 06:32:00,62.0,-99.9,30.10,NE,45,1.0,5.0,-999,0.00,,,0.00,,2013-07-13 11:32:00,
2013-07-13 06:43:00,62.0,-99.9,30.09,NNE,23,3.0,6.0,-999,0.00,,,0.00,,2013-07-13 11:43:00,
2013-07-13 06:52:00,63.0,-99.9,30.09,NNE,23,5.0,6.0,-999,0.00,,,0.00,,2013-07-13 11:52:00,
2013-07-13 07:02:00,63.0,-99.9,30.09,NNE,23,1.0,7.0,-999,0.00,,,0.00,,2013-07-13 12:02:00,
2013-07-13 07:12:00,63.0,-99.9,30.09,NNE,23,3.0,6.0,-999,0.00,,,0.00,,2013-07-13 12:12:00,
2013-07-13 07:32:00,65.0,-99.9,30.09,NNE,23,2.0,5.0,-999,0.00,,,0.00,,2013-07-13 12:32:00,
2013-07-13 07:43:00,66.0,-99.9,30.10,NE,45,3.0,8.0,-999,0.00,,,0.00,,2013-07-13 12:43:00,
2013-07-13 07:52:00,66.0,-99.9,30.10,NNE,23,3.0,7.0,-999,0.00,,,0.00,,2013-07-13 12:52:00,
2013-07-13 08:01:00,67.0,-99.9,30.12,NNE,23,2.0,9.0,-999,0.00,,,0.00,,2013-07-13 13:01:00,
2013-07-13 08:12:00,68.0,-99.9,30.12,NNE,23,5.0,8.0,-999,0.00,,,0.00,,2013-07-13 13:12:00,
2013-07-13 08:32:00,70.0,-99.9,30.11,ENE,68,7.0,8.0,-999,0.00,,,0.00,,2013-07-13 13:32:00,
2013-07-13 08:43:00,70.0,-99.9,30.11,ENE,68,7.0,8.0,-999,0.00,,,0.00,,2013-07-13 13:43:00,
2013-07-13 09:02:00,72.0,-99.9,30.11,NE,45,6.0,10.0,-999,0.00,,,0.00,,2013-07-13 14:02:00,
2013-07-13 09:11:00,73.0,-99.9,30.11,ENE,68,3.0,10.0,-999,0.00,,,0.00,,2013-07-13 14:11:00,
2013-07-13 09:22:00,73.0,-99.9,30.11,NE,45,6.0,8.0,-999,0.00,,,0.00,,2013-07-13 14:22:00,
2013-07-13 09:33:00,74.0,-99.9,30.11,ENE,68,5.0,9.0,-999,0.00,,,0.00,,2013-07-13 14:33:00,
2013-07-13 09:44:00,75.0,-99.9,30.11,ENE,68,7.0,9.0,-999,0.00,,,0.00,,2013-07-13 14:44:00,
2013-07-13 09:53:00,76.0,-99.9,30.11,East,90,7.0,10.0,-999,0.00,,,0.00,,2013-07-13 14:53:00,
2013-07-13 10:02:00,77.0,-99.9,30.10,NE,45,6.0,9.0,-999,0.00,,,0.00,,2013-07-13 15:02:00,
2013-07-13 10:12:00,77.0,-99.9,30.11,ENE,68,7.0,10.0,-999,0.00,,,0.00,,2013-07-13 15:12:00,
2013-07-13 10:22:00,78.0,-99.9,30.11,ENE,68,6.0,9.0,-999,0.00,,,0.00,,2013-07-13 15:22:00,
2013-07-13 10:33:00,79.0,-99.9,30.10,ENE,68,5.0,9.0,-999,0.00,,,0.00,,2013-07-13 15:33:00,
2013-07-13 10:43:00,79.0,-99.9,30.09,East,90,6.0,12.0,-999,0.00,,,0.00,,2013-07-13 15:43:00,
2013-07-13 10:53:00,80.0,-99.9,30.09,ENE,68,7.0,10.0,-999,0.00,,,0.00,,2013-07-13 15:53:00,
2013-07-13 11:02:00,80.0,-99.9,30.10,NE,45,7.0,13.0,-999,0.00,,,0.00,,2013-07-13 16:02:00,
2013-07-13 11:12:00,81.0,-99.9,30.10,NE,45,7.0,12.0,-999,0.00,,,0.00,,2013-07-13 16:12:00,
2013-07-13 11:33:00,83.0,-99.9,30.10,NE,45,7.0,12.0,-999,0.00,,,0.00,,2013-07-13 16:33:00,
2013-07-13 11:43:00,82.0,-99.9,30.11,NE,45,3.0,12.0,-999,0.00,,,0.00,,2013-07-13 16:43:00,
2013-07-13 12:33:00,85.0,-99.9,30.10,East,90,8.0,14.0,-999,0.00,,,0.00,,2013-07-13 17:33:00,
2013-07-13 12:43:00,85.0,-99.9,30.09,East,90,9.0,15.0,-999,0.00,,,0.00,,2013-07-13 17:43:00,
2013-07-13 13:02:00,86.0,-99.9,30.10,ENE,68,9.0,13.0,-999,0.00,,,0.00,,2013-07-13 18:02:00,
2013-07-13 13:44:00,87.0,-99.9,30.09,ENE,68,8.0,12.0,-999,0.00,,,0.00,,2013-07-13 18:44:00,
2013-07-13 16:12:00,87.0,-99.9,30.06,East,90,8.0,10.0,-999,0.00,,,0.00,,2013-07-13 21:12:00,
2013-07-13 16:22:00,88.0,-99.9,30.05,ENE,68,6.0,10.0,-999,0.00,,,0.00,,2013-07-13 21:22:00,
2013-07-13 19:01:00,87.0,-99.9,30.05,NE,45,0.0,0.0,-999,0.00,,,0.00,,2013-07-14 00:01:00,
2013-07-13 19:12:00,88.0,-99.9,30.05,NE,45,0.0,0.0,-999,0.00,,,0.00,,2013-07-14 00:12:00,
2013-07-13 19:42:00,86.0,-99.9,30.06,NE,45,0.0,0.0,-999,0.00,,,0.00,,2013-07-14 00:42:00,
2013-07-13 20:02:00,77.0,-99.9,30.06,NE,45,0.0,3.0,-999,0.00,,,0.00,,2013-07-14 01:02:00,
2013-07-13 20:11:00,77.0,-99.9,30.06,NE,45,0.0,0.0,-999,0.00,,,0.00,,2013-07-14 01:11:00,
2013-07-13 20:22:00,77.0,-99.9,30.07,NE,45,0.0,0.0,-999,0.00,,,0.00,,2013-07-14 01:22:00,
2013-07-13 20:32:00,76.0,-99.9,30.06,NE,45,0.0,6.0,-999,0.00,,,0.00,,2013-07-14 01:32:00,
2013-07-13 20:43:00,77.0,-99.9,30.07,NE,45,5.0,6.0,-999,0.00,,,0.00,,2013-07-14 01:43:00,
2013-07-13 20:52:00,76.0,-99.9,30.07,NE,45,0.0,6.0,-999,0.00,,,0.00,,2013-07-14 01:52:00,
2013-07-13 21:02:00,75.0,-99.9,30.07,ENE,68,0.0,6.0,-999,0.00,,,0.00,,2013-07-14 02:02:00,
2013-07-13 21:11:00,74.0,-99.9,30.08,ENE,68,0.0,0.0,-999,0.00,,,0.00,,2013-07-14 02:11:00,
2013-07-13 21:32:00,73.0,-99.9,30.08,ENE,68,0.0,0.0,-999,0.00,,,0.00,,2013-07-14 02:32:00,
2013-07-13 21:43:00,72.0,-99.9,30.09,ENE,68,0.0,0.0,-999,0.00,,,0.00,,2013-07-14 02:43:00,
2013-07-13 21:53:00,72.0,-99.9,30.09,ENE,68,0.0,0.0,-999,0.00,,,0.00,,2013-07-14 02:53:00,
2013-07-13 22:02:00,72.0,-99.9,30.09,ENE,68,0.0,0.0,-999,0.00,,,0.00,,2013-07-14 03:02:00,
2013-07-13 22:11:00,72.0,-99.9,30.09,ENE,68,0.0,0.0,-999,0.00,,,0.00,,2013-07-14 03:11:00,
2013-07-13 22:32:00,72.0,-99.9,30.09,NE,45,1.0,6.0,-999,0.00,,,0.00,,2013-07-14 03:32:00,
2013-07-13 22:43:00,72.0,-99.9,30.09,NE,45,5.0,7.0,-999,0.00,,,0.00,,2013-07-14 03:43:00,
2013-07-13 23:02:00,70.0,-99.9,30.09,East,90,0.0,6.0,-999,0.00,,,0.00,,2013-07-14 04:02:00,
2013-07-13 23:11:00,71.0,-99.9,30.09,NE,45,3.0,5.0,-999,0.00,,,0.00,,2013-07-14 04:11:00,
2013-07-13 23:22:00,72.0,-99.9,30.09,NE,45,0.0,6.0,-999,0.00,,,0.00,,2013-07-14 04:22:00,
2013-07-13 23:32:00,71.0,-99.9,30.09,NE,45,1.0,5.0,-999,0.00,,,0.00,,2013-07-14 04:32:00,
2013-07-13 23:42:00,71.0,-99.9,30.09,NE,45,0.0,5.0,-999,0.00,,,0.00,,2013-07-14 04:42:00,